Flag for U.S.A. Weather past 2 weeks in Newark, New Jersey, U.S.A.

Now
51 °F

Passing clouds.


Feels Like: 48 °F
Forecast: 48 / 61 °F
Wind: 9 mph from Northeast

Location: Newark International Airport

Current Time: Apr 19, 2015 at 5:49:04 AM

Latest Report: Apr 19, 2015 at 4:51 AM


Visibility: 10 mi

Pressure: 30.16 "Hg

Humidity: 36%

Dew point: 25 °F

Location of NewarkLocation

Historic Weather in Newark — Graph

°F

Newark temperature yesterday

Maximum temperature yesterday: 81 °F (at 5:51 PM)
Minimum temperature yesterday: 55 °F (at 5:51 AM)
Average temperature yesterday: 69 °F

Past Weeks' High & Low Weather Summary

 TemperatureHumidityPressure
High81 °F (Apr 18, 5:51 PM)97% (Apr 10, 3:51 AM)30.48 "Hg (Apr 10, 3:51 AM)
Low37 °F (Apr 5, 3:51 AM)10% (Apr 15, 5:51 PM)29.50 "Hg (Apr 4, 4:51 AM)
Average55 °F54%30.15 "Hg
* Reported Apr 4 4:51 AM — Apr 19 4:51 AM, Newark, Weather by CustomWeather, © 2015

Note: Actual official high and low records may vary slightly from our data, if they occured in-between our weather recording intervals... More about our weather records

Advertising

Newark weather history for previous 24 hours

 ConditionsComfort  
Time TempWeatherWind HumidityBarometerVisibility
4:51 AM
Sun, Apr 19
51 °FPassing clouds.9 mph36%30.16 "Hg10 mi
3:51 AM56 °FPassing clouds.14 mph27%30.14 "Hg10 mi
2:51 AM59 °FPassing clouds.14 mph26%30.11 "Hg10 mi
1:51 AM58 °FPassing clouds.8 mph27%30.09 "Hg10 mi
12:51 AM62 °FPassing clouds.13 mph21%30.07 "Hg10 mi
11:51 PM
Sat, Apr 18
63 °FPassing clouds.14 mph25%30.05 "Hg10 mi
10:51 PM67 °FPassing clouds.17 mph18%30.01 "Hg10 mi
9:51 PM71 °FPassing clouds.21 mph20%29.97 "Hg10 mi
8:51 PM75 °FPassing clouds.24 mph23%29.93 "Hg10 mi
7:51 PM78 °FPartly sunny.10 mph24%29.88 "Hg10 mi
6:51 PM80 °FScattered clouds.15 mph21%29.85 "Hg10 mi
5:51 PM81 °FScattered clouds.14 mph20%29.84 "Hg10 mi
4:51 PM79 °FBroken clouds.16 mph26%29.85 "Hg10 mi
3:51 PM80 °FBroken clouds.15 mph25%29.86 "Hg10 mi
2:51 PM80 °FBroken clouds.15 mph24%29.88 "Hg10 mi
1:51 PM78 °FPartly sunny.9 mph25%29.91 "Hg10 mi
12:51 PM77 °FPartly sunny.7 mph24%29.93 "Hg10 mi
11:51 AM76 °FPartly sunny.10 mph29%29.96 "Hg10 mi
10:51 AM73 °FScattered clouds.3 mph34%29.98 "Hg10 mi
9:51 AM70 °FPassing clouds.5 mph42%30.00 "Hg10 mi
8:51 AM66 °FPassing clouds.6 mph50%30.00 "Hg10 mi
7:51 AM62 °FPassing clouds.5 mph60%30.00 "Hg10 mi
6:51 AM55 °FPassing clouds.3 mph74%29.98 "Hg10 mi
5:51 AM55 °FPassing clouds.3 mph72%29.97 "Hg10 mi
Weather by CustomWeather, © 2015

See weather overviewHow to use our weather pages